DL8JF-13 Weather Reports


time (UTC)temp
F
wind
direction
speed
knots
gust
knots
rain 1hr
in
rain 24hr
in
rain mn
in
humidity
%
barometer
mb
20260902113354 65 0 0.0 0.0 0.00 0.16 0.00 65 1011.4
20260902111857 64 0 0.0 0.0 0.00 0.16 0.00 72 1011.5
20260902110357 63 0 0.0 0.0 0.00 0.16 0.00 73 1011.7
20260902104857 63 0 0.0 0.0 0.00 0.16 0.00 75 1011.7
20260902103357 63 0 0.0 0.0 0.00 0.16 0.00 80 1011.7
20260902101857 63 0 0.0 0.0 0.00 0.16 0.00 84 1011.5
20260902100357 63 0 0.0 0.0 0.00 0.16 0.00 88 1011.7
20260902094854 61 0 0.0 0.0 0.00 0.16 0.00 90 1011.6
20260902093354 61 0 0.0 0.0 0.00 0.16 0.00 91 1011.6
20260902091857 61 0 0.0 0.0 0.00 0.16 0.00 92 1011.7
20260902090357 60 0 0.0 0.0 0.00 0.16 0.00 93 1011.7
20260902084857 59 0 0.0 0.0 0.00 0.16 0.00 93 1011.6
20260902083354 59 0 0.0 0.0 0.00 0.16 0.00 93 1011.6
20260902081854 59 0 0.0 0.0 0.00 0.16 0.00 93 1011.7
20260902080354 58 0 0.0 0.0 0.00 0.16 0.00 94 1011.8
20260902074854 57 0 0.0 0.0 0.00 0.16 0.00 94 1011.6
20260902073354 56 0 0.0 0.0 0.00 0.16 0.00 94 1011.6
20260902071854 56 0 0.0 0.0 0.00 0.16 0.00 94 1011.5
20260902070357 55 0 0.0 0.0 0.00 0.16 0.00 94 1011.6
20260902064857 55 0 0.0 0.0 0.00 0.16 0.00 94 1011.7
20260902063357 55 0 0.0 0.0 0.00 0.16 0.00 94 1011.7
20260902061857 55 0 0.0 0.0 0.00 0.16 0.00 94 1011.7
20260902060357 54 0 0.0 0.0 0.00 0.16 0.00 94 1011.7
20260902054857 54 0 0.0 0.0 0.00 0.16 0.00 94 1011.7
20260902053354 53 0 0.0 0.0 0.00 0.16 0.00 94 1011.7
20260902051857 53 0 0.0 0.0 0.00 0.16 0.00 94 1012.1
20260902050357 53 0 0.0 0.0 0.00 0.16 0.00 94 1011.3
20260902044854 53 0 0.0 0.0 0.00 0.16 0.00 94 1011.3
20260902043357 53 0 0.0 0.0 0.00 0.16 0.00 94 1011.3
20260902041857 54 0 0.0 0.0 0.00 0.16 0.00 94 1011.4
20260902040357 55 0 0.0 0.0 0.00 0.16 0.00 94 1011.4
20260902034854 55 0 0.0 0.0 0.00 0.16 0.00 94 1011.5
20260902033357 55 0 0.0 0.0 0.00 0.16 0.00 94 1011.5
20260902031854 55 0 0.0 0.0 0.00 0.16 0.00 94 1011.4
20260902030357 55 0 0.0 0.0 0.00 0.16 0.00 94 1011.4
20260902024857 55 0 0.0 0.0 0.00 0.16 0.00 94 1011.6
20260902023354 55 0 0.0 0.0 0.00 0.16 0.00 95 1011.6
20260902021857 55 0 0.0 0.0 0.00 0.16 0.00 95 1011.6
20260902020354 55 0 0.0 0.0 0.00 0.16 0.00 94 1011.4
20260902014854 55 0 0.0 0.0 0.00 0.16 0.00 95 1011.3
20260902013354 55 0 0.0 0.0 0.00 0.19 0.00 95 1011.3
20260902011857 55 0 0.0 0.0 0.00 0.19 0.00 95 1011.4
20260902010354 56 0 0.0 0.0 0.00 0.19 0.00 95 1011.3
20260902004857 56 0 0.0 0.0 0.00 0.19 0.00 95 1011.4
20260902003354 56 0 0.0 0.0 0.00 0.19 0.00 95 1011.4
20260902001854 57 0 0.0 0.0 0.00 0.19 0.00 95 1011.5
20260902000354 57 0 0.0 0.0 0.00 0.19 0.00 96 1011.7
20260901234857 57 0 0.0 0.0 0.00 0.19 0.00 96 1011.9
20260901233357 57 0 0.0 0.0 0.00 0.19 0.00 96 1011.9
20260901231854 57 0 0.0 0.0 0.00 0.19 0.00 96 1012.0
20260901230354 57 0 0.0 0.0 0.00 0.19 0.00 96 1011.8
20260901224855 57 0 0.0 0.0 0.00 0.19 0.00 96 1011.8
20260901223354 57 0 0.0 0.0 0.00 0.19 0.00 96 1011.8
20260901221857 58 0 0.0 0.0 0.00 0.19 0.00 96 1011.9
20260901220354 58 0 0.0 0.0 0.00 0.19 0.00 96 1011.7
20260901214857 58 0 0.0 0.0 0.00 0.19 0.00 96 1011.6
20260901213357 58 0 0.0 0.0 0.00 0.19 0.00 95 1011.6
20260901211854 58 0 0.0 0.0 0.00 0.19 0.00 95 1011.5
20260901210357 58 0 0.0 0.0 0.00 0.19 0.00 95 1011.5
20260901204854 58 0 0.0 0.0 0.00 0.19 0.00 95 1011.4
20260901203357 58 0 0.0 0.0 0.00 0.19 0.00 94 1011.4
20260901201857 58 0 0.0 0.0 0.00 0.19 0.00 94 1011.5
20260901200354 58 0 0.0 0.0 0.00 0.19 0.00 94 1011.5
20260901194854 58 0 0.0 0.0 0.00 0.19 0.00 94 1011.3
20260901193357 58 0 0.0 0.0 0.00 0.19 0.00 94 1011.3
20260901191857 58 0 0.0 0.0 0.00 0.19 0.00 94 1011.3
20260901190357 58 0 0.0 0.0 0.00 0.19 0.00 94 1011.0
20260901184854 58 0 0.0 0.0 0.00 0.19 0.00 94 1010.9
20260901183357 58 0 0.0 0.0 0.00 0.19 0.00 94 1010.9
20260901181854 58 0 0.0 0.0 0.00 0.19 0.00 94 1010.7
20260901180354 58 0 0.0 0.0 0.00 0.19 0.00 94 1010.7
20260901174857 59 0 0.0 0.0 0.00 0.19 0.00 94 1010.7
20260901173357 59 0 0.0 0.0 0.00 0.19 0.00 94 1010.7
20260901171857 60 0 0.0 0.0 0.00 0.19 0.00 94 1010.5
20260901170357 60 0 0.0 0.0 0.00 0.19 0.00 95 1010.5
20260901164857 60 0 0.0 0.0 0.00 0.19 0.00 95 1010.3
20260901163354 59 0 0.0 0.0 0.00 0.19 0.00 95 1010.3
20260901161857 60 0 0.0 0.0 0.00 0.19 0.00 95 1010.4
20260901160354 60 0 0.0 0.0 0.00 0.19 0.00 95 1010.3
20260901154854 59 0 0.0 0.0 0.00 0.19 0.00 95 1011.0
20260901153354 59 0 0.0 0.0 0.00 0.19 0.00 95 1011.0
20260901151854 59 0 0.0 0.0 0.00 0.19 0.00 95 1010.3
20260901150357 59 0 0.0 0.0 0.00 0.19 0.00 95 1009.9
20260901144857 59 0 0.0 0.0 0.00 0.19 0.00 96 1009.8
20260901143354 59 0 0.0 0.0 0.00 0.19 0.00 95 1009.7
20260901141854 59 0 0.0 0.0 0.00 0.19 0.00 95 1009.7
20260901140354 60 0 0.0 0.0 0.00 0.19 0.00 95 1009.6
20260901134854 60 0 0.0 0.0 0.00 0.19 0.00 95 1009.3
20260901133357 61 0 0.0 0.0 0.00 0.19 0.00 94 1009.6
20260901131857 61 0 0.0 0.0 0.02 0.19 0.00 94 1009.6
20260901130357 60 0 0.0 0.0 0.16 0.19 0.00 93 1009.8
20260901124857 60 0 0.0 0.0 0.16 0.19 0.00 92 1009.8
20260901123357 60 0 0.0 0.0 0.16 0.19 0.00 91 1009.9
20260901121854 60 0 0.0 0.0 0.13 0.16 0.00 87 1009.9
20260901120354 66 0 0.0 0.0 0.00 0.02 0.00 74 1009.1
20260901114854 67 0 0.0 0.0 0.00 0.02 0.00 73 1009.0